Weather Roundup
Issued by NWS Chicago, IL

Home | Current Version | Previous Version | Graphics & Text | Print | Product List | Glossary Off
Versions: 1 2 3 4 5 6 7 8 9 10 11 12 13 14 15 16 17 18 19 20 21 22 23 24 25 26 27 28 29 30 31 32 33 34 35 36 37 38 39 40 41 42 43 44 45 46 47 48 49 50

000
NZUS59 KLOT 291421
HRRLOT

CHICAGO AREA WEATHER ROUNDUP
NATIONAL WEATHER SERVICE CHICAGO/ROMEOVILLE IL
900 AM CDT SAT AUG 29 2015

NOTE: "FAIR" INDICATES FEW OR NO CLOUDS BELOW 12,000 FEET WITH NO
SIGNIFICANT WEATHER AND/OR OBSTRUCTIONS TO VISIBILITY.

* THESE STATIONS ARE NOT UNDER NWS QUALITY CONTROL. THEY ALSO MAY NOT
  REPORT WEATHER SUCH AS PRECIPITATION OR FOG.

ILZ005-006-012>014-019>023-291500-
NORTHEAST ILLINOIS

CITY           SKY/WX    TMP DP  RH WIND       PRES   REMARKS
OHARE          RAIN      64  63  96 NE9       30.05S FOG
MIDWAY         CLOUDY    67  62  84 E5        30.05S
AURORA         CLOUDY    65  63  93 NE8       30.04F FOG
LANSING*       LGT RAIN  64  62  93 E3        30.06S
JOLIET*        CLOUDY    66  64  91 SE5       30.04S
WAUKEGAN       LGT RAIN  61  59  93 SE8       30.05F
DUPAGE AIRPORT LGT RAIN  64  61  90 E7        30.04S FOG
WHEELING       LGT RAIN  63  62  97 E5        30.05F FOG
KANKAKEE*      CLOUDY    67  64  90 SE6       30.05S
MORRIS*        CLOUDY    67  63  87 SE5       30.01F
LEWIS AIRPORT* CLOUDY    65  62  93 E6        30.04S
NORTHERLY IS     N/A     64  61  90 E5          N/A
$$

WIZ051-052-058>065-066-070>072-291500-
SOUTHEAST WISCONSIN

CITY           SKY/WX    TMP DP  RH WIND       PRES   REMARKS
MILWAUKEE      CLOUDY    62  59  90 SE10      30.04F
KENOSHA*       LGT RAIN  61  59  93 SE12      30.05F FOG
RACINE*        CLOUDY    62  59  90 SE8       30.06F
BURLINGTON     CLOUDY    60  59  98 SE8       30.03F FOG
WAUKESHA       DRIZZLE   59  57  94 E6        30.05F
WEST BEND      CLOUDY    59  59 100 CALM      30.05S FOG
$$

INZ001>003-010>013-019-020-291500-
NORTHWEST INDIANA

CITY           SKY/WX    TMP DP  RH WIND       PRES   REMARKS
GARY*          CLOUDY    66  63  88 SE8       30.07S
MICHIGAN CITY* NOT AVBL
RENSSELAER*    NOT AVBL
VALPARAISO     CLOUDY    65  62  90 NE6       30.08S
$$

LMZ740>746-291500-
SOUTHERN LAKE MICHIGAN

STATION/POSITION TIME  SKY/WX   TEMP WIND        PRES    VSBY
                                AIR  DIR/SP/G
                 (UTC)          (F)  (DEG/KT/KT) (MB)    (MI)
HARRISON CRIB    1300            65  150/  9/ 11   N/A
BURNHAM HARBOR   1400            64  130/  3/  6   N/A
CALUMET HARBOR   NOT AVBL
BURNS HARBOR     1300            66  140/  9/ 13 1018.6
MICHIGAN CITY    1300            65  110/  8/  9   N/A
$$

ABBREVIATIONS USED IN REMARKS
   TC - TEMPERATURE IN CELSIUS
  WCI - WIND CHILL INDEX
   HX - HEAT INDEX
  VSB - VISIBILITY
$$


USA.gov is the U.S. government's official web portal to all federal, state and local government web resources and services.